• In Lithuania
  • List of Countries
  • For 7 days
  • Water Temperature
  • Satellite Maps
  • Weather Map
  • Weather Widgets
  • user-avatar
    Login

    Hourly Weather Melbourne

    Today, 27 July, Thursday

    Time Temperature Precipitation Wind Pressure Humidity
    00:00 +7°C° 0 mm 1 mps 766 mmHg 92%
    01:00 +7°C° 0 mm 1 mps 767 mmHg 93%
    02:00 +6°C° 0 mm 2 mps 766 mmHg 93%
    03:00 +6°C° 0 mm 2 mps 766 mmHg 93%
    04:00 +6°C° 0 mm 2 mps 765 mmHg 92%
    05:00 +6°C° 0 mm 2 mps 765 mmHg 92%
    06:00 +5°C° 0 mm 3 mps 765 mmHg 91%
    07:00 +5°C° 0 mm 3 mps 765 mmHg 91%
    08:00 +7°C° 0 mm 3 mps 765 mmHg 86%
    09:00 +8°C° 0 mm 4 mps 765 mmHg 82%
    10:00 +9°C° 0 mm 6 mps 765 mmHg 75%
    11:00 +10°C° 0 mm 6 mps 764 mmHg 70%
    12:00 +11°C° 0 mm 6 mps 763 mmHg 66%
    13:00 +14°C° 0 mm 6 mps 763 mmHg 62%
    14:00 +13°C° 0 mm 6 mps 762 mmHg 64%
    15:00 +13°C° 0 mm 6 mps 761 mmHg 66%
    16:00 +13°C° 0 mm 5 mps 760 mmHg 68%
    17:00 +11°C° 0 mm 6 mps 760 mmHg 69%
    18:00 +11°C° 0 mm 6 mps 760 mmHg 69%
    19:00 +11°C° 0 mm 6 mps 759 mmHg 69%
    20:00 +10°C° 1.1 mm 6 mps 759 mmHg 76%
    21:00 +10°C° 1.1 mm 6 mps 759 mmHg 83%
    22:00 +9°C° 1.1 mm 7 mps 759 mmHg 90%
    23:00 +9°C° 0.8 mm 6 mps 759 mmHg 91%

    Tomorrow, 28 July, Friday

    Time Temperature Precipitation Wind Pressure Humidity
    00:00 +9°C° 0.8 mm 5 mps 759 mmHg 92%
    01:00 +10°C° 0.8 mm 4 mps 759 mmHg 93%
    02:00 +8°C° 0.1 mm 4 mps 759 mmHg 93%
    03:00 +7°C° 0.1 mm 4 mps 760 mmHg 93%
    04:00 +7°C° 0.1 mm 4 mps 760 mmHg 93%
    05:00 +7°C° 0 mm 4 mps 760 mmHg 93%
    06:00 +7°C° 0 mm 4 mps 761 mmHg 93%
    07:00 +7°C° 0 mm 3 mps 761 mmHg 92%
    08:00 +7°C° 0 mm 4 mps 762 mmHg 89%
    09:00 +10°C° 0 mm 4 mps 762 mmHg 86%
    10:00 +11°C° 0 mm 4 mps 763 mmHg 82%
    11:00 +12°C° 0 mm 3 mps 763 mmHg 75%
    12:00 +13°C° 0 mm 3 mps 763 mmHg 67%
    13:00 +14°C° 0 mm 3 mps 763 mmHg 60%
    14:00 +14°C° 0 mm 2 mps 763 mmHg 60%
    15:00 +14°C° 0 mm 2 mps 763 mmHg 61%
    16:00 +14°C° 0 mm 2 mps 763 mmHg 61%
    17:00 +13°C° 0 mm 1 mps 763 mmHg 68%
    18:00 +11°C° 0 mm 1 mps 763 mmHg 75%
    19:00 +10°C° 0 mm 1 mps 764 mmHg 82%
    20:00 +8°C° 0 mm 2 mps 764 mmHg 82%
    21:00 +8°C° 0 mm 2 mps 764 mmHg 82%
    22:00 +8°C° 0 mm 3 mps 764 mmHg 82%
    23:00 +8°C° 0 mm 3 mps 763 mmHg 79%

    Day after tomorrow, 29 July, Saturday

    Time Temperature Precipitation Wind Pressure Humidity
    00:00 +8°C° 0 mm 4 mps 763 mmHg 77%
    01:00 +8°C° 0 mm 5 mps 762 mmHg 75%
    02:00 +8°C° 0 mm 5 mps 762 mmHg 73%
    03:00 +8°C° 0 mm 6 mps 761 mmHg 71%
    04:00 +8°C° 0 mm 6 mps 761 mmHg 69%
    05:00 +8°C° 0 mm 7 mps 761 mmHg 67%
    06:00 +9°C° 0 mm 8 mps 760 mmHg 66%
    07:00 +9°C° 0 mm 8 mps 760 mmHg 64%
    08:00 +10°C° 0 mm 9 mps 759 mmHg 62%
    09:00 +10°C° 0 mm 9 mps 759 mmHg 60%
    10:00 +11°C° 0 mm 10 mps 758 mmHg 58%
    11:00 +12°C° 0 mm 10 mps 757 mmHg 56%
    12:00 +13°C° 0 mm 10 mps 756 mmHg 55%
    13:00 +14°C° 0 mm 10 mps 754 mmHg 53%
    14:00 +16°C° 0 mm 9 mps 754 mmHg 54%
    15:00 +16°C° 0 mm 8 mps 753 mmHg 54%
    16:00 +16°C° 0 mm 8 mps 753 mmHg 55%
    17:00 +16°C° 0 mm 7 mps 752 mmHg 55%
    18:00 +16°C° 0 mm 6 mps 752 mmHg 55%
    19:00 +16°C° 0 mm 6 mps 752 mmHg 55%
    20:00 +15°C° 0.6 mm 5 mps 752 mmHg 65%
    21:00 +14°C° 0.6 mm 4 mps 753 mmHg 76%
    22:00 +13°C° 0.6 mm 4 mps 753 mmHg 86%
    23:00 +13°C° 0.9 mm 4 mps 753 mmHg 89%

    30 July, Sunday

    Time Temperature Precipitation Wind Pressure Humidity
    00:00 +12°C° 0.9 mm 4 mps 754 mmHg 91%
    01:00 +12°C° 0.9 mm 3 mps 754 mmHg 93%
    02:00 +12°C° 0.3 mm 4 mps 754 mmHg 93%
    03:00 +11°C° 0.3 mm 4 mps 755 mmHg 92%
    04:00 +11°C° 0.3 mm 4 mps 755 mmHg 92%
    05:00 +10°C° 0 mm 4 mps 756 mmHg 92%
    06:00 +10°C° 0 mm 3 mps 756 mmHg 92%
    07:00 +9°C° 0 mm 3 mps 757 mmHg 92%
    08:00 +10°C° 0 mm 3 mps 757 mmHg 89%
    09:00 +11°C° 0 mm 3 mps 757 mmHg 85%
    10:00 +12°C° 0 mm 4 mps 758 mmHg 81%
    11:00 +12°C° 0.1 mm 4 mps 757 mmHg 78%
    12:00 +13°C° 0.1 mm 4 mps 757 mmHg 75%
    13:00 +14°C° 0.1 mm 5 mps 757 mmHg 71%
    14:00 +13°C° 0.5 mm 4 mps 757 mmHg 75%
    15:00 +13°C° 0.5 mm 4 mps 757 mmHg 78%
    16:00 +12°C° 0.5 mm 4 mps 757 mmHg 82%
    17:00 +11°C° 0.4 mm 4 mps 758 mmHg 85%
    18:00 +10°C° 0.4 mm 4 mps 759 mmHg 87%
    19:00 +9°C° 0.4 mm 3 mps 759 mmHg 90%
    20:00 +9°C° 0 mm 3 mps 760 mmHg 91%
    21:00 +8°C° 0 mm 3 mps 760 mmHg 91%
    22:00 +7°C° 0 mm 3 mps 761 mmHg 92%
    23:00 +7°C° 0 mm 2 mps 761 mmHg 92%

    31 July, Monday

    Time Temperature Precipitation Wind Pressure Humidity
    00:00 +7°C° 0 mm 2 mps 761 mmHg 93%
    01:00 +6°C° 0 mm 2 mps 761 mmHg 93%
    02:00 +6°C° 0 mm 2 mps 762 mmHg 92%
    03:00 +6°C° 0 mm 2 mps 762 mmHg 92%
    04:00 +6°C° 0 mm 2 mps 762 mmHg 92%
    05:00 +6°C° 0 mm 2 mps 762 mmHg 92%
    06:00 +5°C° 0 mm 2 mps 763 mmHg 92%
    07:00 +5°C° 0 mm 2 mps 763 mmHg 92%
    08:00 +7°C° 0 mm 2 mps 763 mmHg 88%
    09:00 +8°C° 0 mm 2 mps 764 mmHg 83%
    10:00 +10°C° 0 mm 2 mps 764 mmHg 78%
    11:00 +12°C° 0 mm 2 mps 764 mmHg 70%
    12:00 +13°C° 0 mm 2 mps 763 mmHg 63%
    13:00 +14°C° 0 mm 2 mps 763 mmHg 55%
    14:00 +14°C° 0 mm 2 mps 763 mmHg 56%
    15:00 +14°C° 0 mm 2 mps 763 mmHg 56%
    16:00 +14°C° 0 mm 2 mps 763 mmHg 56%
    17:00 +12°C° 0 mm 1 mps 764 mmHg 65%
    18:00 +10°C° 0 mm 1 mps 764 mmHg 73%
    19:00 +8°C° 0 mm 1 mps 765 mmHg 82%
    20:00 +8°C° 0 mm 1 mps 765 mmHg 84%
    21:00 +7°C° 0 mm 0 mps 765 mmHg 86%
    22:00 +6°C° 0 mm 0 mps 766 mmHg 87%
    23:00 +6°C° 0 mm 0 mps 766 mmHg 87%

    1 August, Tuesday

    Time Temperature Precipitation Wind Pressure Humidity
    00:00 +6°C° 0 mm 0 mps 766 mmHg 87%
    01:00 +7°C° 0 mm 0 mps 765 mmHg 87%
    02:00 +7°C° 0.2 mm 0 mps 765 mmHg 88%
    03:00 +7°C° 0.2 mm 0 mps 765 mmHg 89%
    04:00 +7°C° 0.2 mm 0 mps 765 mmHg 90%
    05:00 +7°C° 0 mm 0 mps 766 mmHg 91%
    06:00 +6°C° 0 mm 0 mps 766 mmHg 92%
    07:00 +6°C° 0 mm 0 mps 767 mmHg 93%
    08:00 +8°C° 0 mm 0 mps 767 mmHg 88%
    09:00 +9°C° 0 mm 0 mps 767 mmHg 82%
    10:00 +11°C° 0 mm 0 mps 768 mmHg 77%
    11:00 +11°C° 0 mm 0 mps 767 mmHg 74%
    12:00 +13°C° 0 mm 1 mps 767 mmHg 71%
    13:00 +13°C° 0 mm 1 mps 767 mmHg 68%
    14:00 +13°C° 0 mm 1 mps 767 mmHg 68%
    15:00 +13°C° 0 mm 1 mps 767 mmHg 69%
    16:00 +13°C° 0 mm 2 mps 767 mmHg 69%
    17:00 +12°C° 0 mm 2 mps 767 mmHg 75%
    18:00 +9°C° 0 mm 2 mps 768 mmHg 80%
    19:00 +8°C° 0 mm 2 mps 768 mmHg 86%
    20:00 +7°C° 0 mm 2 mps 769 mmHg 87%
    21:00 +7°C° 0 mm 2 mps 769 mmHg 88%
    22:00 +7°C° 0 mm 1 mps 769 mmHg 89%
    23:00 +7°C° 0 mm 1 mps 769 mmHg 90%
    Show more